Location: Calenborn
(50.2608°N, 7.0772°E)
Time: 23:48:06
(UTC+00:00)

Daily predictions for brighter satellites

Satellite Brightness Start Highest point End
(mag) Time Altitude Azimuth Time Altitude Azimuth Time Altitude Azimuth
Cosmos 1943 3.2 18:03:34 10° NNW 18:09:15 82° ENE 18:14:55 10° SSE
Okean 2 Rocket 4.4 18:06:58 10° SE 18:10:17 21° E 18:13:36 10° NE
SJ-11-01 4.3 18:06:25 10° SSE 18:11:04 62° ENE 18:15:44 10° N
NOSS 8 (F) 4.3 18:08:16 10° SSW 18:11:25 54° SE 18:14:23 10° NE
Helios 1A Rocket 4.5 18:08:46 10° S 18:12:40 41° W 18:16:36 10° NNW
Cosmos 1939 Rocket 4.3 18:09:02 10° S 18:12:59 44° W 18:16:59 10° NNW
Lacrosse 5 rocket 1.8 18:08:54 10° WSW 18:13:07 67° NNW 18:17:34 10° NE
Okean-O 3.4 18:08:57 10° S 18:13:19 58° WSW 18:17:43 10° NNW
Ariane Rocket 3.7 18:12:04 10° SE 18:16:37 35° ENE 18:21:12 10° N
Cosmos 1437 2.5 18:14:25 10° N 18:17:25 71° ENE 18:20:24 10° SSE
NOSS 3-2 (A) 4.3 18:11:16 10° NW 18:18:18 54° NE 18:26:20 10° ESE
Meteor 1-21 4.2 18:14:35 10° N 18:20:14 78° ENE 18:25:50 10° SSE
NOSS 2-2 (C) 4.4 18:18:05 10° SSE 18:20:47 21° ESE 18:23:39 10° ENE
USA 116 3.4 18:18:48 10° NNE 18:22:09 65° ESE 18:25:49 10° S
Cosmos 2227 Rocket 4.1 18:17:11 10° WSW 18:22:10 31° NW 18:27:11 10° NNE
GP-B 3.9 18:19:28 10° N 18:23:50 59° W 18:28:11 10° SSW
CSL-04 Debris 4.3 18:19:06 10° SSE 18:24:30 86° WSW 18:29:56 10° NNW
Cosmos 1603 4.2 18:23:01 10° NNW 18:28:39 66° WSW 18:34:13 10° SSE
YAOGAN 1 3.4 18:24:40 10° S 18:28:55 55° W 18:33:11 10° NNW
HJ-1C 3.4 18:28:01 10° SSE 18:31:17 85° WSW 18:34:37 10° NNW
Cosmos 1898 Rocket 3.4 18:27:03 10° SSW 18:32:13 82° ESE 18:37:26 10° NNE
Cosmos 1867 3.6 18:27:18 10° NW 18:32:49 81° NE 18:38:16 10° SE
Okean 2 4.0 18:29:33 10° NNW 18:33:42 62° W 18:37:48 10° S
CSL-04 Rocket 3.9 18:28:49 10° S 18:34:14 77° WSW 18:39:46 10° NNW
Cosmos 1536 Rocket 4.3 18:33:23 10° N 18:37:26 33° ENE 18:41:16 11° SE
USA 234 4.2 18:36:28 10° ENE 18:41:46 26° SE 18:47:03 10° S
Cosmos 1626 4.3 18:41:53 10° NE 18:42:57 11° ENE 18:43:18 11° ENE
Cosmos 858 Rocket 4.4 18:40:13 10° SSW 18:45:26 79° ESE 18:50:40 10° NNE
CREW DRAGON DEMO-1 DEB 3.0 18:42:54 10° W 18:45:55 64° N 18:47:59 18° ENE
Cosmos 1782 Rocket 3.8 18:45:12 10° SSW 18:49:37 74° WNW 18:54:05 10° N
Cosmos 1975 3.7 18:46:41 10° SSW 18:50:42 55° WNW 18:54:44 10° N
CZ-4 R/B 3.7 18:47:35 10° SSW 18:51:14 28° W 18:54:54 10° NW
Cosmos 2151 Rocket 4.2 18:47:14 10° SSE 18:51:18 35° E 18:55:24 10° NNE
Cosmos 372 Rocket 4.2 18:46:25 10° S 18:51:24 46° ESE 18:56:24 10° NE
Cosmos 1025 Rocket 3.1 18:47:14 10° N 18:51:33 57° ENE 18:55:52 10° SSE
USA 186 1.7 18:48:49 10° SSE 18:51:50 65° ENE 18:55:04 10° N
NOSS 3-2 (C) 4.3 18:45:21 10° NW 18:52:26 56° NE 18:58:45 17° ESE
Cosmos 1072 Rocket 4.5 18:50:55 10° S 18:57:05 69° E 19:03:24 10° NNE
Nadezhda 4 Rocket 4.0 18:52:12 10° N 18:58:15 57° ENE 19:04:16 10° SSE
Cosmos 2082 Rocket 4.2 18:58:14 10° N 19:01:24 15° NNE 19:04:34 10° ENE
Cosmos 1937 Rocket 3.6 18:56:39 10° SSW 19:01:55 79° WNW 19:07:10 10° NNE
OBJECT-B 1.5 19:01:23 28° ESE 19:02:19 34° ENE 19:05:18 10° N
MOS 1 Rocket 3.2 18:58:37 10° NNE 19:03:11 83° WNW 19:07:31 10° SSW
Cosmos 2034 Rocket 4.2 18:57:13 10° SSE 19:03:21 53° E 19:09:30 10° NNE
Cosmos 1125 Rocket 4.4 19:00:32 10° SSE 19:04:57 28° E 19:09:24 10° NE
Exosat Rocket 4.4 19:01:36 10° SSE 19:06:12 27° ESE 19:10:23 10° NE
FREGAT/IRIS 2.1 19:05:32 35° SSE 19:06:25 67° ENE 19:09:02 10° N
Cosmos 1674 3.2 19:04:40 10° N 19:08:20 40° ENE 19:09:42 29° ESE
COSMOS 2406 4.5 19:04:55 10° NNW 19:09:38 26° NE 19:12:17 19° E
Cosmos 1975 Rocket 4.5 19:07:13 10° NNW 19:11:15 39° W 19:15:16 10° SSW
In-Cosmos 22 4.1 19:10:04 10° NNW 19:15:23 86° WSW 19:20:44 10° S
Cosmos 468 4.5 19:11:19 10° NNW 19:16:41 78° ENE 19:20:21 21° SSE
NOSS 2-2 (E) 3.0 19:14:15 10° SW 19:17:46 85° SE 19:21:55 10° NE
Resurs 01 Rocket 2.2 19:19:16 31° ESE 19:20:42 40° ENE 19:24:52 10° N
Cosmos 1707 3.6 19:17:08 10° NNW 19:20:52 49° W 19:24:33 10° S
H-2A R/B 3.4 19:16:43 10° SSW 19:21:18 37° W 19:26:00 10° NNW
ARGOS 4.0 19:17:14 10° S 19:22:24 49° W 19:27:39 10° NNW
ATLAS 2AS CENTAUR R/B 4.1 19:24:48 21° E 19:24:48 21° E 19:28:43 10° ENE
CZ-2C R/B 2.6 19:18:06 10° NNE 19:23:39 74° ESE 19:29:14 10° S
Lacrosse 4 Rocket 3.7 19:22:52 10° N 19:24:31 12° NNE 19:25:54 11° NE
SJ-6B 2.9 19:21:48 17° S 19:24:37 72° WSW 19:28:23 10° NNW
KORONAS-FOTON 3.8 19:22:07 10° N 19:26:01 60° ENE 19:27:14 39° SE
NOSS 2-2 (D) 3.0 19:22:43 10° SW 19:26:14 81° SE 19:30:17 10° NE
MOS 1 4.4 19:23:27 10° S 19:29:09 76° WSW 19:34:54 10° NNW
Cosmos 1048 Rocket 4.0 19:25:33 10° NNW 19:30:52 87° WSW 19:34:10 24° SSE
Cosmos 1766 4.3 19:33:39 29° ENE 19:33:39 29° ENE 19:36:13 10° NNE
ATLAS CENTAUR R/B 4.0 19:31:20 10° NW 19:32:56 12° NNW 19:34:31 10° N
CENTAUR R/B 3.2 19:25:30 10° NW 19:33:24 76° NE 19:38:33 28° SE
Cosmos 1844 3.9 19:29:48 10° S 19:35:10 44° ESE 19:40:29 10° NE
Cosmos 1634 Rocket 4.3 19:34:23 28° SE 19:37:01 43° E 19:42:49 10° NNE
ARIANE 5 R/B 3.3 19:37:43 35° ENE 19:37:59 35° ENE 19:41:58 10° N
SWAS 4.4 19:33:42 10° NNW 19:38:02 72° ENE 19:39:04 49° SE
ATLAS 3B R/B 3.4 19:32:59 10° NW 19:39:24 42° NNE 19:42:49 26° E
Cosmos 1269 Rocket 4.4 19:34:55 10° NNW 19:40:05 48° ENE 19:41:30 38° ESE
Cosmos 2263 Rocket 3.5 19:34:50 10° WSW 19:40:06 42° NW 19:45:26 10° NNE
USA 238 DEB 3.9 19:34:06 10° NW 19:41:17 79° SW 19:45:38 28° SSE
USA 238 3.9 19:34:11 10° NW 19:41:23 79° SW 19:45:43 28° SSE
Cosmos 2285 Rocket 4.1 19:35:30 10° S 19:41:30 49° ESE 19:47:35 10° NNE
ISS -2.5 19:39:09 10° SW 19:41:14 31° SSW 19:41:14 31° SSW
MetOp-B 4.4 19:41:11 38° ESE 19:42:41 48° ENE 19:47:49 10° N
Abrixas rocket 3.0 19:40:32 10° W 19:42:32 38° WSW 19:42:32 38° WSW
SJ 16-02 4.5 19:41:22 10° W 19:44:02 16° NW 19:46:41 10° N
Cosmos 1844 Rocket 2.6 19:41:33 10° SSW 19:47:02 64° ESE 19:52:35 10° NE
Okean 2 Rocket 4.0 19:43:39 10° SSW 19:48:01 49° WNW 19:52:24 10° N
Spot 2 Rocket 4.0 19:48:08 37° E 19:48:43 39° ENE 19:53:23 10° N
Cosmos 1627 Rocket 4.5 19:44:10 10° N 19:50:34 71° ENE 19:53:34 33° SSE
Okean 1 Rocket 3.0 19:51:22 52° SSE 19:52:16 68° E 19:56:46 10° NNE
Lacrosse 5 rocket 2.9 19:48:51 10° WNW 19:52:53 35° N 19:55:13 21° NE
GRACE-FO 1 4.5 19:50:10 10° N 19:53:56 88° E 19:54:02 84° SSE
GRACE-FO 2 4.5 19:50:32 10° N 19:54:18 89° ENE 19:54:24 85° SSE
Ariane Rocket 4.2 19:50:49 10° SSW 19:55:32 39° W 20:00:18 10° NNW
Cosmos 1092 Rocket 3.9 19:50:32 10° N 19:56:43 88° W 20:00:14 28° S
Meteor 1-15 Rocket 4.2 19:53:49 10° SSW 19:59:26 87° WNW 20:05:12 10° NNE
Resurs 1-3 4.0 19:57:57 34° S 19:59:42 62° WSW 20:04:05 10° NNW
Cosmos 2195 Rocket 4.4 19:53:43 10° N 20:00:03 88° E 20:03:07 32° S
Cosmos 494 Rocket 4.1 19:58:37 10° NNW 20:03:52 72° WSW 20:05:36 42° S
Cosmos 2026 Rocket 3.9 19:57:52 10° N 20:04:16 82° E 20:06:55 38° SSE
CZ-2C R/B 3.5 20:00:28 10° NNE 20:04:57 80° ESE 20:05:30 67° S
Cosmos 2298 Rocket 4.3 20:00:29 10° SSW 20:05:47 69° WNW 20:11:09 10° NNE
SPOT 3 Rocket 3.8 20:03:38 32° S 20:06:01 65° WSW 20:11:11 10° NNW
Cosmos 1833 Rocket 3.2 20:01:37 10° NNW 20:07:00 42° NE 20:07:46 40° ENE
NOSS 3-2 (A) 4.5 20:02:11 10° NW 20:09:28 57° WSW 20:13:57 28° S
NOSS 2-2 (C) 4.3 20:07:29 10° WSW 20:10:57 45° NW 20:15:00 10° NE
Cosmos 1428 Rocket 4.4 20:10:17 10° N 20:16:37 87° W 20:18:50 43° S
Terra 3.2 20:19:13 25° NE 20:19:13 25° NE 20:22:18 10° N
Cosmos 1626 2.9 20:15:02 10° NNW 20:17:51 49° NNW 20:17:51 49° NNW
Cosmos 1892 Rocket 3.9 20:16:31 10° N 20:20:06 57° NNE 20:20:06 57° NNE
Cosmos 2279 Rocket 4.0 20:20:51 57° ESE 20:21:14 58° E 20:27:22 10° NNE
Cosmos 2142 Rocket 4.4 20:21:19 57° SE 20:22:25 67° E 20:28:37 10° NNE
USA 234 3.1 20:19:23 12° ENE 20:25:31 75° SE 20:32:04 10° SW
Meteor 2-5 Rocket 4.2 20:23:03 10° NNW 20:28:34 58° W 20:30:35 38° SSW
OBJECT-B 3.4 20:34:34 16° W 20:34:49 17° W 20:36:59 10° NW
Cosmos 1805 4.5 20:35:56 39° W 20:36:03 39° WNW 20:39:46 10° N
SPOT 5 3.5 20:40:10 50° NE 20:40:10 50° NE 20:44:36 10° N
NOSS 3-2 (C) 4.4 20:36:20 10° NW 20:43:37 55° WSW 20:46:11 41° S
Meteor 1-22 Rocket 4.4 20:43:03 52° SSW 20:44:33 76° WNW 20:50:38 10° N
Cosmos 1125 Rocket 4.3 20:41:34 10° SW 20:46:45 52° WNW 20:51:58 10° NNE
Cosmos 2082 Rocket 2.7 20:41:28 10° NNW 20:46:33 48° NE 20:46:33 48° NE
Okean 1-7 Rocket 4.3 20:43:11 10° NNW 20:46:41 52° NNW 20:46:41 52° NNW
COSMOS 2406 3.2 20:48:52 10° NNW 20:54:20 75° W 20:54:20 75° W
Meteor 1-24 Rocket 4.5 20:50:10 10° NNW 20:55:22 46° W 20:56:23 41° SW
ERS-1 Rocket 3.4 20:57:24 57° N 20:57:24 57° N 21:01:25 10° NNW
Resurs 01 Rocket 3.3 20:56:51 26° WSW 20:57:18 27° W 21:01:07 10° NW
Cosmos 2098 Rocket 4.0 20:56:16 10° N 21:03:35 89° W 21:03:50 84° S
Lacrosse 4 Rocket 3.3 21:00:14 10° NNW 21:02:11 25° NNW 21:02:11 25° NNW
Cosmos 2266 Rocket 4.0 21:00:08 10° N 21:05:35 70° NNE 21:05:35 70° NNE
Cosmos 1655 Rocket 4.0 21:06:19 10° NNW 21:12:30 76° W 21:12:30 76° W
ATLAS 2AS CENTAUR R/B 2.9 21:11:59 70° S 21:12:57 79° SE 21:20:49 10° NE
SPOT 1/Viking Rocket 4.3 21:14:24 48° WNW 21:14:24 48° WNW 21:18:54 10° NNW
ARIANE 5 R/B 4.4 21:15:16 27° WNW 21:15:16 27° WNW 21:18:19 10° NW
Cosmos 2278 Rocket 3.9 21:22:33 23° NE 21:22:33 23° NE 21:24:40 10° NNE
CENTAUR R/B 4.0 21:16:34 10° NW 21:23:54 38° WSW 21:25:44 35° SW
ATLAS 3B R/B 2.8 21:23:44 10° NW 21:30:03 68° W 21:30:03 68° W
Cosmos 1844 Rocket 4.4 21:26:33 10° WSW 21:31:23 29° NW 21:36:15 10° NNE
Lacrosse 5 rocket 3.6 21:28:34 10° NW 21:30:51 26° NW 21:30:51 26° NW
Cosmos 909 Rocket 4.5 21:41:35 10° NW 21:46:53 57° WNW 21:46:53 57° WNW
Cosmos 1833 Rocket 4.0 21:45:41 10° NW 21:49:28 34° WNW 21:49:28 34° WNW
Terra 3.7 21:58:07 27° NW 21:58:07 27° NW 22:00:28 10° NNW
USA 234 3.7 22:02:03 10° ENE 22:08:27 59° NNW 22:14:51 10° W
Cosmos 2082 Rocket 4.1 22:25:52 10° NW 22:28:23 23° WNW 22:28:23 23° WNW
Cosmos 2369 Rocket 4.5 22:59:18 16° NE 22:59:18 16° NE 23:00:32 10° NE
CZ-4C R/B 4.1 23:02:00 24° NE 23:02:00 24° NE 23:04:32 10° NE
Cosmos 2278 Rocket 4.0 23:04:22 27° NNW 23:04:22 27° NNW 23:08:27 10° NNE
ATLAS 2AS CENTAUR R/B 3.9 22:59:09 19° W 23:04:39 44° NNW 23:11:59 10° NE
NOSS 3-1 (C) 4.4 23:22:53 10° NW 23:28:48 58° N 23:28:48 58° N
Cosmos 2227 Rocket 4.4 23:37:53 10° N 23:41:52 19° NE 23:43:30 17° ENE
USA 234 3.9 23:44:42 10° ENE 23:54:28 26° WNW 23:57:14 10° WNW
